Lakeview, OR

12:51 PM PDT on July 24, 2016 (GMT -0700)
Lake County

Weather History for KLKV - January, 2014

Change the Weather History Date:

Saturday, January 4, 2014

  Actual Average Record
Temperature  
Mean Temperature 30 °F -  
Max Temperature 44 °F 35 °F 55 °F (2012)
Min Temperature 17 °F 19 °F -14 °F (1949)
Degree Days  
Heating Degree Days 34    
Moisture  
Dew Point 6 °F    
Average Humidity 45    
Maximum Humidity 74    
Minimum Humidity 12    
Precipitation  
Precipitation 0.00 in - - ()
Sea Level Pressure  
Sea Level Pressure 30.26 in    
Wind  
Wind Speed 11 mph (North)    
Max Wind Speed 20 mph    
Max Gust Speed 24 mph    
Visibility 10 miles    
Events      
Averages and records for this station are not official NWS values.
T = Trace of Precipitation, MM = Missing Value Source: NWS Daily Summary

Daily Weather History Graph

Daily Weather History Graph

Search for Another Location

Airport or City:

Trip Planner

Search our weather history database for the weather conditions in past years. The results will help you decide how hot, cold, wet, or windy it might be!

Date:

Astronomy

Jan. 04, 2014 Rise Set
Actual Time 7:30 AM PST 4:43 PM PST
Civil Twilight 6:58 AM PST 5:14 PM PST
Nautical Twilight 6:23 AM PST 5:49 PM PST
Astronomical Twilight 5:49 AM PST 6:23 PM PST
Moon 9:34 AM PST (1/4) 9:14 PM PST (1/4)
Length of Visible Light 10h 16m
Length of Day
9h 12m
Waxing Crescent, 16% of the Moon is Illuminated
Jan 4
Waxing Crescent
Jan 7
First Quarter
Jan 15
Full
Jan 23
Last Quarter
Jan 30
New

Hourly Weather History & Observations

Time (PST) Temp. Windchill Dew Point Humidity Pressure Visibility Wind Dir Wind Speed Gust Speed Precip Events Conditions
12:15 AM 26.6 °F 15.2 °F 14.0 °F 59% 30.12 in 10.0 mi NNW 13.8 mph - N/A   Clear
12:35 AM 24.8 °F 14.0 °F 12.2 °F 59% 30.12 in 10.0 mi NNW 11.5 mph - N/A   Clear
12:55 AM 24.8 °F 12.9 °F 15.8 °F 69% 30.12 in 10.0 mi NNW 13.8 mph - N/A   Clear
1:15 AM 24.8 °F 14.0 °F 12.2 °F 59% 30.12 in 10.0 mi North 11.5 mph - N/A   Clear
1:35 AM 24.8 °F 13.4 °F 14.0 °F 64% 30.14 in 10.0 mi NNW 12.7 mph - N/A   Clear
1:55 AM 24.8 °F 11.9 °F 12.2 °F 59% 30.14 in 10.0 mi NNW 16.1 mph - N/A   Clear
2:15 AM 24.8 °F 11.1 °F 12.2 °F 59% 30.15 in 10.0 mi North 18.4 mph 23.0 mph N/A   Clear
2:35 AM 24.8 °F 12.4 °F 10.4 °F 54% 30.17 in 10.0 mi North 15.0 mph 19.6 mph N/A   Clear
2:55 AM 23.0 °F 9.2 °F 15.8 °F 74% 30.17 in 10.0 mi North 17.3 mph 24.2 mph N/A   Clear
3:15 AM 21.2 °F 6.4 °F 12.2 °F 68% 30.17 in 10.0 mi North 18.4 mph 21.9 mph N/A   Clear
3:35 AM 21.2 °F 7.8 °F 14.0 °F 74% 30.18 in 10.0 mi North 15.0 mph 23.0 mph N/A   Clear
3:55 AM 21.2 °F 6.4 °F 10.4 °F 63% 30.17 in 10.0 mi North 18.4 mph 23.0 mph N/A   Clear
4:15 AM 21.2 °F 6.0 °F 14.0 °F 74% 30.16 in 10.0 mi NNW 19.6 mph - N/A   Clear
4:35 AM 21.2 °F 6.4 °F 10.4 °F 63% 30.16 in 10.0 mi NNW 18.4 mph - N/A   Clear
4:55 AM 21.2 °F 7.3 °F 12.2 °F 68% 30.17 in 10.0 mi North 16.1 mph - N/A   Clear
5:15 AM 21.2 °F 10.1 °F 10.4 °F 63% 30.19 in 10.0 mi NNE 10.4 mph - N/A   Clear
5:35 AM 19.4 °F 9.5 °F 12.2 °F 74% 30.19 in 10.0 mi NNE 8.1 mph - N/A   Clear
5:55 AM 17.6 °F 6.4 °F 10.4 °F 73% 30.21 in 10.0 mi NNE 9.2 mph - N/A   Clear
6:15 AM 21.2 °F 8.9 °F 12.2 °F 68% 30.22 in 10.0 mi North 12.7 mph - N/A   Clear
6:35 AM 21.2 °F 7.8 °F 10.4 °F 63% 30.22 in 10.0 mi North 15.0 mph - N/A   Clear
6:55 AM 21.2 °F 6.4 °F 12.2 °F 68% 30.23 in 10.0 mi NNW 18.4 mph - N/A   Clear
7:15 AM 21.2 °F 7.3 °F 10.4 °F 63% 30.23 in 10.0 mi North 16.1 mph - N/A   Clear
7:35 AM 19.4 °F 6.6 °F 12.2 °F 74% 30.23 in 10.0 mi North 12.7 mph - N/A   Clear
7:55 AM 17.6 °F 7.3 °F 10.4 °F 73% 30.24 in 10.0 mi NNW 8.1 mph - N/A   Clear
8:15 AM 19.4 °F 9.5 °F 12.2 °F 74% 30.25 in 10.0 mi NW 8.1 mph - N/A   Clear
8:35 AM 23.0 °F - 12.2 °F 63% 30.27 in 10.0 mi Calm Calm - N/A   Clear
8:55 AM 21.2 °F 16.4 °F 12.2 °F 68% 30.28 in 10.0 mi East 3.5 mph - N/A   Clear
9:15 AM 21.2 °F - 12.2 °F 68% 30.29 in 10.0 mi Calm Calm - N/A   Clear
9:35 AM 24.8 °F 20.5 °F 14.0 °F 64% 30.29 in 10.0 mi SSE 3.5 mph - N/A   Clear
9:55 AM 26.6 °F 21.2 °F 12.2 °F 55% 30.29 in 10.0 mi South 4.6 mph - N/A   Clear
10:15 AM 30.2 °F - 8.6 °F 40% 30.30 in 10.0 mi Calm Calm - N/A   Clear
10:35 AM 30.2 °F 26.7 °F 6.8 °F 37% 30.30 in 10.0 mi South 3.5 mph - N/A   Clear
10:55 AM 33.8 °F 29.6 °F 10.4 °F 38% 30.30 in 10.0 mi SSE 4.6 mph - N/A   Clear
11:15 AM 32.0 °F 27.5 °F 8.6 °F 38% 30.29 in 10.0 mi SE 4.6 mph - N/A   Clear
11:35 AM 33.8 °F 30.8 °F 8.6 °F 35% 30.29 in 10.0 mi SE 3.5 mph - N/A   Clear
11:55 AM 35.6 °F - 8.6 °F 33% 30.28 in 10.0 mi Calm Calm - N/A   Clear
12:15 PM 37.4 °F 33.8 °F 8.6 °F 30% 30.28 in 10.0 mi SE 4.6 mph - N/A   Clear
12:35 PM 39.2 °F 35.9 °F 6.8 °F 26% 30.27 in 10.0 mi ESE 4.6 mph - N/A   Clear
12:55 PM 41.0 °F 37.1 °F 5.0 °F 23% 30.26 in 10.0 mi SE 5.8 mph - N/A   Clear
1:15 PM 42.8 °F 38.0 °F 3.2 °F 19% 30.26 in 10.0 mi SE 8.1 mph - N/A   Clear
1:35 PM 42.8 °F 38.0 °F 10.4 °F 27% 30.27 in 10.0 mi ESE 8.1 mph - N/A   Clear
1:55 PM 41.0 °F - 6.8 °F 24% 30.27 in 10.0 mi Calm Calm - N/A   Clear
2:15 PM 44.6 °F 38.4 °F -0.4 °F 15% 30.27 in 10.0 mi North 12.7 mph 18.4 mph N/A   Clear
2:35 PM 42.8 °F 35.4 °F -5.8 °F 13% 30.27 in 10.0 mi North 15.0 mph - N/A   Clear
2:55 PM 42.8 °F 36.6 °F -5.8 °F 13% 30.27 in 10.0 mi North 11.5 mph 21.9 mph N/A   Clear
3:15 PM 42.8 °F 35.8 °F -7.6 °F 12% 30.27 in 10.0 mi North 13.8 mph - N/A   Clear
3:35 PM 41.0 °F 33.1 °F -7.6 °F 13% 30.27 in 10.0 mi North 15.0 mph 20.7 mph N/A   Clear
3:55 PM 39.2 °F 31.2 °F -9.4 °F 12% 30.27 in 10.0 mi North 13.8 mph - N/A   Clear
4:15 PM 37.4 °F 28.9 °F -9.4 °F 13% 30.27 in 10.0 mi North 13.8 mph - N/A   Clear
4:35 PM 35.6 °F 28.0 °F -9.4 °F 14% 30.27 in 10.0 mi North 10.4 mph - N/A   Clear
4:55 PM 33.8 °F 25.8 °F -11.2 °F 14% 30.27 in 10.0 mi North 10.4 mph - N/A   Clear
5:15 PM 30.2 °F 20.8 °F -11.2 °F 16% 30.27 in 10.0 mi North 11.5 mph - N/A   Clear
5:35 PM 33.8 °F 25.8 °F -7.6 °F 17% 30.27 in 10.0 mi North 10.4 mph - N/A   Clear
5:55 PM 28.4 °F 19.1 °F -9.4 °F 19% 30.28 in 10.0 mi North 10.4 mph - N/A   Clear
6:15 PM 28.4 °F 19.1 °F -5.8 °F 23% 30.28 in 10.0 mi North 10.4 mph - N/A   Clear
6:35 PM 28.4 °F 18.0 °F -2.2 °F 27% 30.28 in 10.0 mi North 12.7 mph - N/A   Clear
6:55 PM 28.4 °F 18.5 °F -0.4 °F 29% 30.29 in 10.0 mi North 11.5 mph - N/A   Clear
7:15 PM 26.6 °F 17.5 °F 1.4 °F 34% 30.30 in 10.0 mi North 9.2 mph - N/A   Clear
7:35 PM 28.4 °F 20.4 °F -0.4 °F 29% 30.31 in 10.0 mi North 8.1 mph - N/A   Clear
7:55 PM 26.6 °F 16.2 °F 1.4 °F 34% 30.31 in 10.0 mi North 11.5 mph - N/A   Clear
8:15 PM 28.4 °F 19.1 °F 1.4 °F 31% 30.32 in 10.0 mi North 10.4 mph - N/A   Clear
8:35 PM 24.8 °F 14.6 °F 3.2 °F 40% 30.32 in 10.0 mi NW 10.4 mph - N/A   Clear
8:55 PM 23.0 °F 13.9 °F 5.0 °F 46% 30.33 in 10.0 mi NW 8.1 mph - N/A   Clear
9:15 PM 24.8 °F 15.3 °F 6.8 °F 46% 30.34 in 10.0 mi NW 9.2 mph - N/A   Clear
9:35 PM 21.2 °F - 3.2 °F 46% 30.35 in 10.0 mi Calm Calm - N/A   Clear
9:55 PM 23.0 °F 15.8 °F 5.0 °F 46% 30.35 in 10.0 mi NW 5.8 mph - N/A   Clear
10:15 PM 19.4 °F - 3.2 °F 49% 30.36 in 10.0 mi Calm Calm - N/A   Clear
10:35 PM 19.4 °F 9.5 °F 6.8 °F 58% 30.36 in 10.0 mi NW 8.1 mph - N/A   Clear
10:55 PM 21.2 °F 9.5 °F 5.0 °F 50% 30.36 in 10.0 mi NW 11.5 mph - N/A   Clear
11:15 PM 21.2 °F 14.9 °F 6.8 °F 54% 30.36 in 10.0 mi North 4.6 mph - N/A   Clear
11:35 PM 21.2 °F - 6.8 °F 54% 30.37 in 10.0 mi Calm Calm - N/A   Clear
11:55 PM 17.6 °F - 3.2 °F 53% 30.37 in 10.0 mi Calm Calm - N/A   Clear